Location: Omaha
(41.2590°N, 95.9380°W)
Time: 06:07:32
(UTC-05:00)

ISS - Pass Details

Date: 13 October 2017
Orbit: 401 x 408 km, 51.6° (Epoch: 19 October)

Event Time Altitude Azimuth Distance (km) Brightness Sun altitude
Rises 20:51:29 0° 296° (WNW) 2,325 1.3 -24.4°
Reaches altitude 10° 20:53:47 10° 282° (WNW) 1,463 0.1 -24.8°
Enters shadow 20:55:59 24° 242° (WSW) 896 -1.6 -25.2°
